• In Hungary
  • List of Countries
  • For 7 days
  • Water Temperature
  • Satellite Maps
  • Weather Map
  • News
  • Weather Widgets
  • user-avatar
    Login

    Hourly Weather Kiczanki

    Today, 17 November, Friday

    Time Temperature Precipitation Wind Pressure Humidity
    00:00 +3°C° 0 mm 1 mps 728 mmHg 80%
    01:00 +3°C° 0 mm 1 mps 728 mmHg 82%
    02:00 +3°C° 0 mm 1 mps 728 mmHg 81%
    03:00 +4°C° 0 mm 1 mps 728 mmHg 81%
    04:00 +3°C° 0 mm 0 mps 728 mmHg 81%
    05:00 +3°C° 0.2 mm 0 mps 728 mmHg 83%
    06:00 +3°C° 0.2 mm 0 mps 727 mmHg 85%
    07:00 +3°C° 0 mm 0 mps 727 mmHg 88%
    08:00 +3°C° 0.3 mm 0 mps 728 mmHg 87%
    09:00 +4°C° 0.3 mm 0 mps 728 mmHg 86%
    10:00 +5°C° 0.3 mm 0 mps 728 mmHg 85%
    11:00 +6°C° 0.3 mm 1 mps 728 mmHg 86%
    12:00 +6°C° 0.3 mm 1 mps 727 mmHg 86%
    13:00 +6°C° 0 mm 1 mps 727 mmHg 87%
    14:00 +5°C° 0.3 mm 1 mps 727 mmHg 89%
    15:00 +5°C° 0.3 mm 1 mps 727 mmHg 91%
    16:00 +5°C° 0.3 mm 1 mps 727 mmHg 93%
    17:00 +4°C° 0.2 mm 1 mps 727 mmHg 93%
    18:00 +4°C° 0.2 mm 1 mps 727 mmHg 93%
    19:00 +4°C° 0.2 mm 1 mps 727 mmHg 94%
    20:00 +3°C° 0.2 mm 1 mps 727 mmHg 94%
    21:00 +3°C° 0.2 mm 1 mps 727 mmHg 94%
    22:00 +3°C° 0.2 mm 1 mps 727 mmHg 94%
    23:00 +3°C° 0.2 mm 1 mps 727 mmHg 94%

    Tomorrow, 18 November, Saturday

    Time Temperature Precipitation Wind Pressure Humidity
    00:00 +3°C° 0.2 mm 1 mps 727 mmHg 94%
    01:00 +3°C° 0.2 mm 1 mps 726 mmHg 94%
    02:00 +3°C° 0.2 mm 1 mps 726 mmHg 95%
    03:00 +3°C° 0.2 mm 1 mps 726 mmHg 95%
    04:00 +3°C° 0.2 mm 1 mps 726 mmHg 95%
    05:00 +3°C° 0.2 mm 1 mps 725 mmHg 95%
    06:00 +3°C° 0.2 mm 1 mps 725 mmHg 95%
    07:00 +3°C° 0.2 mm 1 mps 725 mmHg 95%
    08:00 +4°C° 0.1 mm 1 mps 725 mmHg 93%
    09:00 +4°C° 0.1 mm 1 mps 725 mmHg 90%
    10:00 +4°C° 0.1 mm 1 mps 725 mmHg 88%
    11:00 +5°C° 0 mm 1 mps 725 mmHg 86%
    12:00 +5°C° 0 mm 1 mps 724 mmHg 84%
    13:00 +5°C° 0 mm 1 mps 724 mmHg 82%
    14:00 +5°C° 0 mm 1 mps 723 mmHg 83%
    15:00 +4°C° 0 mm 1 mps 723 mmHg 85%
    16:00 +4°C° 0 mm 1 mps 723 mmHg 87%
    17:00 +3°C° 0 mm 1 mps 722 mmHg 88%
    18:00 +2°C° 0 mm 1 mps 722 mmHg 89%
    19:00 +1°C° 0 mm 2 mps 722 mmHg 90%
    20:00 +1°C° 0 mm 2 mps 721 mmHg 89%
    21:00 -1°C° 0 mm 2 mps 721 mmHg 87%
    22:00 -1°C° 0 mm 2 mps 721 mmHg 86%
    23:00 -1°C° 0 mm 2 mps 721 mmHg 86%

    Day after tomorrow, 19 November, Sunday

    Time Temperature Precipitation Wind Pressure Humidity
    00:00 +1°C° 0 mm 2 mps 720 mmHg 86%
    01:00 0°C° 0 mm 3 mps 720 mmHg 85%
    02:00 0°C° 0.1 mm 3 mps 720 mmHg 86%
    03:00 -1°C° 0.1 mm 2 mps 719 mmHg 87%
    04:00 -1°C° 0.1 mm 2 mps 719 mmHg 88%
    05:00 -1°C° 0 mm 2 mps 719 mmHg 88%
    06:00 -1°C° 0 mm 2 mps 719 mmHg 89%
    07:00 -1°C° 0 mm 2 mps 719 mmHg 89%
    08:00 0°C° 0 mm 3 mps 719 mmHg 84%
    09:00 +1°C° 0 mm 3 mps 719 mmHg 79%
    10:00 +2°C° 0 mm 3 mps 719 mmHg 74%
    11:00 +1°C° 0 mm 4 mps 719 mmHg 71%
    12:00 +3°C° 0 mm 4 mps 719 mmHg 69%
    13:00 +3°C° 0 mm 4 mps 719 mmHg 67%
    14:00 +2°C° 0 mm 3 mps 719 mmHg 71%
    15:00 +1°C° 0 mm 3 mps 719 mmHg 76%
    16:00 0°C° 0 mm 3 mps 718 mmHg 81%
    17:00 -1°C° 0 mm 3 mps 718 mmHg 81%
    18:00 -1°C° 0 mm 3 mps 718 mmHg 82%
    19:00 -1°C° 0 mm 3 mps 718 mmHg 83%
    20:00 -1°C° 0.3 mm 3 mps 718 mmHg 84%
    21:00 -1°C° 0.3 mm 4 mps 719 mmHg 84%
    22:00 -1°C° 0.3 mm 4 mps 719 mmHg 85%
    23:00 -1°C° 0.1 mm 4 mps 719 mmHg 86%

    20 November, Monday

    Time Temperature Precipitation Wind Pressure Humidity
    00:00 -1°C° 0.1 mm 3 mps 719 mmHg 87%
    01:00 -1°C° 0.1 mm 3 mps 719 mmHg 88%
    02:00 -2°C° 0 mm 3 mps 719 mmHg 88%
    03:00 -2°C° 0 mm 3 mps 719 mmHg 87%
    04:00 -2°C° 0 mm 3 mps 719 mmHg 87%
    05:00 -1°C° 0.1 mm 3 mps 719 mmHg 86%
    06:00 -2°C° 0.1 mm 4 mps 720 mmHg 85%
    07:00 -1°C° 0.1 mm 4 mps 720 mmHg 85%
    08:00 -1°C° 0.1 mm 5 mps 720 mmHg 82%
    09:00 0°C° 0.1 mm 5 mps 721 mmHg 79%
    10:00 0°C° 0.1 mm 5 mps 721 mmHg 76%
    11:00 +1°C° 0.1 mm 5 mps 721 mmHg 75%
    12:00 +1°C° 0.1 mm 5 mps 721 mmHg 75%
    13:00 +1°C° 0.1 mm 5 mps 721 mmHg 74%
    14:00 0°C° 0.1 mm 4 mps 721 mmHg 78%
    15:00 +1°C° 0.1 mm 3 mps 721 mmHg 82%
    16:00 +1°C° 0.1 mm 2 mps 722 mmHg 86%
    17:00 +1°C° 0.1 mm 2 mps 721 mmHg 87%
    18:00 +1°C° 0.1 mm 2 mps 721 mmHg 88%
    19:00 -1°C° 0.1 mm 2 mps 721 mmHg 89%
    20:00 +1°C° 0.1 mm 2 mps 721 mmHg 89%
    21:00 +1°C° 0.1 mm 2 mps 721 mmHg 88%
    22:00 +1°C° 0.1 mm 2 mps 721 mmHg 88%
    23:00 +1°C° 0.1 mm 2 mps 720 mmHg 88%

    21 November, Tuesday

    Time Temperature Precipitation Wind Pressure Humidity
    00:00 +1°C° 0.1 mm 2 mps 720 mmHg 88%
    01:00 0°C° 0.1 mm 3 mps 719 mmHg 87%
    02:00 +1°C° 0.2 mm 3 mps 718 mmHg 87%
    03:00 +1°C° 0.2 mm 3 mps 718 mmHg 86%
    04:00 0°C° 0.2 mm 4 mps 717 mmHg 86%
    05:00 0°C° 0.2 mm 4 mps 717 mmHg 86%
    06:00 +1°C° 0.2 mm 4 mps 716 mmHg 87%
    07:00 +1°C° 0.2 mm 4 mps 716 mmHg 87%
    08:00 +3°C° 0.4 mm 4 mps 716 mmHg 86%
    09:00 +3°C° 0.4 mm 4 mps 716 mmHg 86%
    10:00 +3°C° 0.4 mm 5 mps 716 mmHg 86%
    11:00 +3°C° 0.4 mm 5 mps 716 mmHg 86%
    12:00 +5°C° 0.4 mm 5 mps 716 mmHg 87%
    13:00 +5°C° 0.4 mm 5 mps 717 mmHg 87%
    14:00 +5°C° 0.5 mm 4 mps 717 mmHg 90%
    15:00 +5°C° 0.5 mm 4 mps 717 mmHg 92%
    16:00 +4°C° 0.5 mm 3 mps 718 mmHg 94%
    17:00 +5°C° 0.5 mm 2 mps 718 mmHg 95%
    18:00 +4°C° 0.5 mm 2 mps 719 mmHg 95%
    19:00 +5°C° 0.5 mm 1 mps 719 mmHg 95%
    20:00 +5°C° 0.2 mm 1 mps 719 mmHg 95%
    21:00 +4°C° 0.2 mm 1 mps 720 mmHg 96%
    22:00 +3°C° 0.2 mm 0 mps 720 mmHg 96%
    23:00 +4°C° 0.1 mm 1 mps 720 mmHg 96%

    22 November, Wednesday

    Time Temperature Precipitation Wind Pressure Humidity
    00:00 +4°C° 0.1 mm 1 mps 720 mmHg 95%
    01:00 +4°C° 0.1 mm 1 mps 721 mmHg 95%
    02:00 +5°C° 0.1 mm 1 mps 720 mmHg 95%
    03:00 +5°C° 0.1 mm 1 mps 720 mmHg 95%
    04:00 +5°C° 0.1 mm 1 mps 720 mmHg 95%
    05:00 +4°C° 0.1 mm 2 mps 720 mmHg 94%
    06:00 +5°C° 0.1 mm 2 mps 720 mmHg 94%
    07:00 +5°C° 0.1 mm 2 mps 720 mmHg 94%
    08:00 +6°C° 0.1 mm 2 mps 721 mmHg 92%
    09:00 +6°C° 0.1 mm 2 mps 721 mmHg 91%
    10:00 +7°C° 0.1 mm 3 mps 722 mmHg 89%
    11:00 +8°C° 0 mm 3 mps 722 mmHg 87%
    12:00 +8°C° 0 mm 3 mps 722 mmHg 84%
    13:00 +8°C° 0 mm 3 mps 722 mmHg 82%
    14:00 +7°C° 0 mm 2 mps 722 mmHg 84%
    15:00 +6°C° 0 mm 2 mps 722 mmHg 87%
    16:00 +5°C° 0 mm 2 mps 722 mmHg 89%
    17:00 +5°C° 0 mm 2 mps 722 mmHg 89%
    18:00 +5°C° 0 mm 2 mps 723 mmHg 88%
    19:00 +4°C° 0 mm 2 mps 723 mmHg 88%
    20:00 +4°C° 0 mm 2 mps 723 mmHg 87%
    21:00 +5°C° 0 mm 1 mps 724 mmHg 86%
    22:00 +5°C° 0 mm 1 mps 724 mmHg 86%
    23:00 +5°C° 0 mm 1 mps 724 mmHg 86%
    Show more